Location: Edoum�
(0.9447°N, 10.6482°E)
Time: 14:38:50
(UTC+00:00)

USA 229 DEB - Pass Details

Date: 07 June 2020
Orbit: 983 x 1229 km, 63.4° (Epoch: 24 June)

Event Time Altitude Azimuth Distance (km) Brightness Sun altitude
Rises 03:10:16 0° 330° (NNW) 4,107 6.7 -28.4°
Reaches altitude 10° 03:13:01 10° 327° (NNW) 3,160 6.1 -27.8°
Maximum altitude 03:20:35 64° 248° (WSW) 1,341 3.8 -26.1°
Drops below altitude 10° 03:28:11 10° 167° (SSE) 3,163 6.0 -24.4°
Sets 03:30:57 0° 164° (SSE) 4,110 6.7 -23.7°
